| time (UTC) | temp F | wind direction | speed MPH | gust MPH | rain 1hr in | rain 24hr in | rain mn in | humidity % | barometer mb |
| 20260902050036 | 51 | 68 | 3.0 | 6.0 | 0.00 | 0.01 | 0.01 | 74 | 1027.3 |
| 20260902044601 | 51 | 86 | 4.0 | 8.0 | 0.00 | 0.01 | 0.01 | 73 | 1027.4 |
| 20260902043036 | 52 | 76 | 3.0 | 7.0 | 0.00 | 0.01 | 0.01 | 73 | 1027.6 |
| 20260902041542 | 52 | 62 | 3.0 | 6.0 | 0.00 | 0.01 | 0.01 | 72 | 1027.6 |
| 20260902040034 | 53 | 0 | 1.0 | 2.0 | 0.00 | 0.01 | 0.01 | 71 | 1027.6 |
| 20260902034538 | 54 | 101 | 0.0 | 3.0 | 0.00 | 0.05 | 0.01 | 71 | 1027.5 |
| 20260902033036 | 53 | 104 | 2.0 | 6.0 | 0.00 | 0.05 | 0.01 | 73 | 1027.2 |
| 20260902031549 | 54 | 74 | 1.0 | 9.0 | 0.00 | 0.05 | 0.01 | 72 | 1027.2 |
| 20260902030035 | 55 | 80 | 4.0 | 7.0 | 0.00 | 0.05 | 0.01 | 70 | 1027.0 |
| 20260902024542 | 55 | 65 | 4.0 | 8.0 | 0.00 | 0.05 | 0.01 | 69 | 1026.4 |
| 20260902023034 | 56 | 64 | 4.0 | 8.0 | 0.00 | 0.05 | 0.01 | 68 | 1026.3 |
| 20260902021535 | 58 | 94 | 3.0 | 5.0 | 0.00 | 0.05 | 0.01 | 64 | 1026.1 |
| 20260902020034 | 59 | 68 | 2.0 | 4.0 | 0.00 | 0.05 | 0.01 | 59 | 1026.2 |
| 20260902014539 | 60 | 0 | 0.0 | 3.0 | 0.00 | 0.05 | 0.01 | 59 | 1026.0 |
| 20260902013037 | 62 | 0 | 0.0 | 4.0 | 0.00 | 0.05 | 0.01 | 58 | 1025.9 |
| 20260902011536 | 63 | 53 | 3.0 | 6.0 | 0.00 | 0.05 | 0.01 | 57 | 1026.1 |
| 20260902010036 | 62 | 0 | 0.0 | 5.0 | 0.00 | 0.05 | 0.01 | 58 | 1026.1 |
| 20260902004537 | 61 | 0 | 1.0 | 7.0 | 0.00 | 0.05 | 0.01 | 60 | 1026.4 |
| 20260902003038 | 62 | 301 | 6.0 | 13.0 | 0.00 | 0.05 | 0.01 | 61 | 1026.4 |
| 20260902001538 | 63 | 305 | 9.0 | 19.0 | 0.00 | 0.05 | 0.01 | 58 | 1026.5 |
| 20260902000038 | 66 | 277 | 6.0 | 14.0 | 0.00 | 0.05 | 0.01 | 56 | 1026.3 |
| 20260901234533 | 68 | 267 | 4.0 | 12.0 | 0.00 | 0.05 | 0.01 | 54 | 1025.9 |
| 20260901233035 | 70 | 299 | 5.0 | 9.0 | 0.00 | 0.05 | 0.01 | 51 | 1025.9 |
| 20260901231540 | 70 | 286 | 3.0 | 7.0 | 0.00 | 0.05 | 0.01 | 50 | 1025.8 |
| 20260901230038 | 71 | 299 | 1.0 | 4.0 | 0.00 | 0.05 | 0.01 | 47 | 1025.9 |
| 20260901224537 | 72 | 236 | 1.0 | 5.0 | 0.00 | 0.09 | 0.01 | 45 | 1025.9 |
| 20260901223036 | 73 | 0 | 0.0 | 5.0 | 0.00 | 0.09 | 0.01 | 45 | 1026.1 |
| 20260901221535 | 72 | 0 | 0.0 | 8.0 | 0.00 | 0.09 | 0.01 | 45 | 1026.2 |
| 20260901220035 | 72 | 262 | 0.0 | 9.0 | 0.00 | 0.09 | 0.01 | 46 | 1026.5 |
| 20260901214536 | 72 | 278 | 1.0 | 8.0 | 0.00 | 0.18 | 0.01 | 50 | 1026.6 |
| 20260901213035 | 71 | 0 | 0.0 | 5.0 | 0.00 | 0.18 | 0.01 | 49 | 1027.0 |
| 20260901211535 | 69 | 332 | 4.0 | 10.0 | 0.00 | 0.18 | 0.01 | 57 | 1027.4 |
| 20260901210035 | 67 | 0 | 1.0 | 9.0 | 0.00 | 0.18 | 0.01 | 57 | 1027.7 |
| 20260901204539 | 67 | 244 | 5.0 | 11.0 | 0.00 | 0.18 | 0.01 | 57 | 1028.0 |
| 20260901203034 | 65 | 0 | 0.0 | 5.0 | 0.00 | 0.18 | 0.01 | 62 | 1028.0 |
| 20260901201533 | 64 | 0 | 0.0 | 5.0 | 0.00 | 0.18 | 0.01 | 64 | 1028.0 |
| 20260901200034 | 62 | 5 | 4.0 | 10.0 | 0.00 | 0.18 | 0.01 | 68 | 1028.3 |
| 20260901194536 | 61 | 0 | 0.0 | 5.0 | 0.01 | 0.18 | 0.01 | 67 | 1028.5 |
| 20260901193035 | 56 | 5.0 | 9.0 | 0.01 | 0.18 | 0.01 | 79 | 1028.7 | |
| 20260901191541 | 57 | 86 | 1.0 | 9.0 | 0.01 | 0.18 | 0.01 | 82 | 1028.6 |
| 20260901190038 | 57 | 0 | 0.0 | 4.0 | 0.01 | 0.18 | 0.01 | 78 | 1029.0 |
| 20260901184534 | 59 | 137 | 1.0 | 5.0 | 0.00 | 0.17 | 0.00 | 77 | 1029.2 |
| 20260901183056 | 0 | 0.0 | 0.0 | 0.00 | 0.17 | 0.00 | 1029.1 | ||
| 20260901181535 | 63 | 0 | 0.0 | 6.0 | 0.00 | 0.17 | 0.00 | 65 | 1028.8 |
| 20260901180034 | 64 | 190 | 4.0 | 8.0 | 0.00 | 0.17 | 0.00 | 68 | 1028.7 |
| 20260901174533 | 61 | 0 | 0.0 | 2.0 | 0.00 | 0.17 | 0.00 | 79 | 1028.9 |
| 20260901173046 | 60 | 297 | 2.0 | 9.0 | 0.00 | 0.17 | 0.00 | 80 | 1029.0 |
| 20260901171547 | 61 | 0 | 0.0 | 5.0 | 0.00 | 0.17 | 0.00 | 76 | 1028.8 |
| 20260901170047 | 61 | 0 | 0.0 | 3.0 | 0.00 | 0.17 | 0.00 | 74 | 1028.7 |
| 20260901164535 | 60 | 0 | 0.0 | 0.0 | 0.00 | 0.17 | 0.00 | 79 | 1028.5 |
| 20260901163046 | 59 | 0 | 0.0 | 1.0 | 0.00 | 0.17 | 0.00 | 82 | 1028.7 |
| 20260901161546 | 60 | 0 | 0.0 | 3.0 | 0.00 | 0.17 | 0.00 | 80 | 1028.6 |
| 20260901160039 | 60 | 0 | 0.0 | 0.0 | 0.00 | 0.17 | 0.00 | 81 | 1028.6 |
| 20260901154536 | 58 | 0.0 | 0.0 | 0.00 | 0.17 | 0.00 | 85 | 1028.6 | |
| 20260901153038 | 57 | 0 | 0.0 | 0.0 | 0.00 | 0.17 | 0.00 | 88 | 1028.7 |
| 20260901151546 | 55 | 0 | 0.0 | 2.0 | 0.00 | 0.17 | 0.00 | 89 | 1028.6 |
| 20260901150043 | 55 | 0.0 | 0.0 | 0.00 | 0.17 | 0.00 | 91 | 1028.5 | |
| 20260901144536 | 55 | 0 | 0.0 | 0.0 | 0.00 | 0.17 | 0.00 | 92 | 1028.6 |
| 20260901143039 | 54 | 0 | 0.0 | 0.0 | 0.00 | 0.17 | 0.00 | 93 | 1028.7 |
| 20260901141543 | 53 | 0 | 0.0 | 0.0 | 0.00 | 0.17 | 0.00 | 94 | 1028.6 |
| 20260901140036 | 52 | 0 | 0.0 | 0.0 | 0.00 | 0.17 | 0.00 | 94 | 1028.7 |
| 20260901134532 | 49 | 2.0 | 5.0 | 0.00 | 0.17 | 0.00 | 94 | 1028.8 | |
| 20260901133043 | 48 | 68 | 0.0 | 6.0 | 0.00 | 0.17 | 0.00 | 94 | 1028.5 |
| 20260901131540 | 46 | 61 | 2.0 | 6.0 | 0.00 | 0.17 | 0.00 | 94 | 1028.6 |
| 20260901130032 | 46 | 59 | 2.0 | 5.0 | 0.00 | 0.17 | 0.00 | 94 | 1028.4 |
| 20260901124534 | 0 | 0.0 | 0.0 | 0.00 | 0.17 | 0.00 | 1028.3 | ||
| 20260901123040 | 47 | 0 | 0.0 | 0.0 | 0.00 | 0.17 | 0.00 | 94 | 1028.2 |
| 20260901121539 | 47 | 0 | 0.0 | 1.0 | 0.00 | 0.17 | 0.00 | 94 | 1028.0 |
| 20260901120034 | 47 | 0 | 1.0 | 3.0 | 0.00 | 0.17 | 0.00 | 94 | 1027.7 |
| 20260901114533 | 47 | 71 | 2.0 | 5.0 | 0.00 | 0.17 | 0.00 | 94 | 1027.6 |
| 20260901113036 | 48 | 73 | 3.0 | 5.0 | 0.00 | 0.17 | 0.00 | 94 | 1027.4 |
| 20260901111534 | 47 | 57 | 3.0 | 5.0 | 0.00 | 0.17 | 0.00 | 94 | 1027.3 |
| 20260901110034 | 48 | 71 | 2.0 | 4.0 | 0.00 | 0.17 | 0.00 | 94 | 1027.2 |
| 20260901104534 | 48 | 71 | 1.0 | 3.0 | 0.00 | 0.17 | 0.00 | 94 | 1027.4 |
| 20260901103040 | 48 | 71 | 1.0 | 4.0 | 0.00 | 0.17 | 0.00 | 94 | 1027.3 |
| 20260901101541 | 48 | 71 | 2.0 | 4.0 | 0.00 | 0.17 | 0.00 | 94 | 1027.2 |
| 20260901100045 | 49 | 0 | 0.0 | 0.0 | 0.00 | 0.17 | 0.00 | 94 | 1027.2 |
| 20260901094540 | 49 | 0 | 0.0 | 2.0 | 0.00 | 0.17 | 0.00 | 94 | 1027.5 |
| 20260901093039 | 49 | 77 | 0.0 | 4.0 | 0.00 | 0.17 | 0.00 | 94 | 1027.2 |
| 20260901091541 | 49 | 77 | 2.0 | 4.0 | 0.00 | 0.17 | 0.00 | 94 | 1027.2 |
| 20260901090038 | 49 | 85 | 2.0 | 4.0 | 0.00 | 0.17 | 0.00 | 94 | 1027.3 |
| 20260901084545 | 49 | 67 | 0.0 | 3.0 | 0.00 | 0.18 | 0.00 | 94 | 1027.4 |
| 20260901083041 | 50 | 0 | 0.0 | 0.0 | 0.00 | 0.18 | 0.00 | 94 | 1027.5 |
| 20260901081540 | 50 | 0.0 | 0.0 | 0.00 | 0.18 | 0.00 | 94 | 1027.6 | |
| 20260901080058 | 51 | 0 | 0.0 | 0.0 | 0.00 | 0.18 | 0.00 | 94 | 1027.9 |
| 20260901074543 | 51 | 0 | 0.0 | 0.0 | 0.00 | 0.18 | 0.00 | 94 | 1028.0 |
| 20260901073134 | 0 | 0.0 | 0.0 | 0.00 | 0.18 | 0.00 | 1028.0 | ||
| 20260901071538 | 51 | 0 | 0.0 | 0.0 | 0.00 | 0.18 | 0.00 | 94 | 1028.1 |
| 20260901070036 | 51 | 0.0 | 0.0 | 0.00 | 0.18 | 0.00 | 94 | 1028.2 | |
| 20260901064535 | 51 | 0 | 0.0 | 5.0 | 0.00 | 0.18 | 0.00 | 93 | 1028.1 |
| 20260901063035 | 51 | 0 | 0.0 | 0.0 | 0.00 | 0.18 | 0.00 | 94 | 1028.2 |
| 20260901061717 | 52 | 0 | 0.0 | 2.0 | 0.00 | 0.18 | 0.00 | 93 | 1028.4 |
| 20260901060040 | 52 | 165 | 3.0 | 5.0 | 0.00 | 0.18 | 0.00 | 93 | 1028.3 |
| 20260901054538 | 52 | 136 | 2.0 | 5.0 | 0.00 | 0.18 | 0.18 | 93 | 1028.2 |
| 20260901053045 | 52 | 115 | 2.0 | 6.0 | 0.00 | 0.18 | 0.18 | 94 | 1028.1 |
| 20260901051535 | 52 | 118 | 3.0 | 7.0 | 0.00 | 0.18 | 0.18 | 94 | 1028.0 |